Current weather by "City, St" or "zip code"  
 

Current Conditions: Massena, Massena International-Richards Field, NY

Mostly Cloudy


46.0 F

Last Updated on Oct 24 2020, 12:53 pm EDT
Humidity: 61%
Wind Speed: NW 10.4 mph
Barometer 30.09 in
Dewpoint: 33.1 F
Visibility: 10.00 mi
Precip: --
Heat Index: NA
Wind Chill: 41 F
Current conditions at:

Massena, Massena International-Richards Field, NY (KMSS)

Lat: 44.93583 Lon: 74.84556

Local Radar Image active severe weather and emergency alerts image image weather storm and storm spotter reports image weather observation monitoring service image
Local
Radar
Active
Alerts
Storm Reports Obs
Monitoring

Sign-up For Email & Text Message Weather Alert Notification Services



Advertise Here

Observation History for Massena, Massena International-Richards Field, NY


Time Wind
(mph)
Vis
(mi)
Weather Precip (in) Temperature (F) Relative
Humidity
Wind
Chill
(F)
Heat
Index
(F)
Pressure
Air Dwpt altimeter
(in)
sea level
(mb)
Rmks
12:53 pm EDT NW 10.4 10.00 Mostly Cloudy -- 46.0 33.1 61% 41 NA 30.09 1018.9
11:53 am EDT N 6.9 10.00 Mostly Cloudy -- 45.0 33.1 63% 41 NA 30.09 1019.0
10:53 am EDT NW 12.7 G 17.3 10.00 Overcast -- 43.0 34.0 71% 36 NA 30.08 1018.7
9:53 am EDT NW 9.2 G 19.6 10.00 Mostly Cloudy -- 43.0 33.1 68% 38 NA 30.06 1017.9
8:53 am EDT NW 13.8 G 20.7 10.00 Overcast -- 42.0 36.0 79% 35 NA 30.01 1016.6
7:53 am EDT W 15.0 G 21.9 10.00 Overcast 00.02 43.0 39.0 86% 36 NA 29.97 1014.9
6:53 am EDT W 13.8 G 21.9 7.00 Light Rain 00.07 44.0 41.0 89% 37 NA 29.90 1012.7
5:53 am EDT W 17.3 G 28.8 4.00 Light Rain Fog/Mist 00.08 51.0 48.0 89% 45 NA 29.82 1009.9
4:53 am EDT SW 12.7 G 24.2 10.00 Light Rain Trace 63.0 59.0 87% 62 NA 29.75 1007.3
3:53 am EDT SW 18.4 G 28.8 10.00 Overcast -- 66.0 59.0 78% NA NA 29.74 1007.0
2:53 am EDT SW 18.4 G 31.1 10.00 Overcast Trace 67.0 57.0 71% NA NA 29.74 1006.9
1:53 am EDT SW 25.3 G 31.1 10.00 Overcast and Breezy -- 69.0 55.9 63% NA NA 29.73 1006.8
12:53 am EDT SW 18.4 G 31.1 10.00 Mostly Cloudy -- 71.0 55.9 59% NA NA 29.74 1006.8
11:53 pm EDT S 18.4 G 24.2 10.00 Fair -- 70.0 55.0 59% NA NA 29.74 1006.9
10:53 pm EDT S 16.1 G 24.2 10.00 Fair -- 70.0 55.9 61% NA NA 29.75 1007.5
9:53 pm EDT S 17.3 G 25.3 10.00 Fair -- 71.0 57.0 61% NA NA 29.76 1007.7
8:53 pm EDT S 11.5 10.00 Fair -- 70.0 57.0 64% NA NA 29.79 1008.7
7:53 pm EDT S 10.4 10.00 A Few Clouds -- 69.0 57.0 66% NA NA 29.81 1009.6
6:53 pm EDT S 6.9 10.00 Fair -- 70.0 57.0 64% NA NA 29.84 1010.4
5:53 pm EDT S 9.2 10.00 A Few Clouds -- 74.0 57.9 57% NA NA 29.85 1010.8
4:53 pm EDT S 12.7 G 21.9 10.00 Partly Cloudy -- 76.0 57.9 54% NA NA 29.87 1011.3
3:53 pm EDT SW 13.8 G 21.9 10.00 Fair -- 78.0 59.0 52% NA NA 29.88 1011.8
2:53 pm EDT SW 9.2 10.00 Overcast -- 76.0 59.0 56% NA NA 29.91 1012.7
1:53 pm EDT SW 18.4 G 25.3 10.00 Overcast -- 76.0 59.0 56% NA NA 29.94 1013.7

Regional Weather Observation


Saranac Lake, Adirondack Regional Airport, NY (KSLK)

Overcast
37.0 F

Fort Drum / Wheeler-Sack U. S. Army Airfield, NY (KGTB)

Overcast
44.0 F

Plattsburgh International Airport , NY (KPBG)

Partly Cloudy
50.0 F

Franklin County State Airport, VT (KFSO)

Overcast
46.0 F

Burlington, Burlington International Airport, VT (KBTV)

Mostly Cloudy
49.0 F

Watertown, Watertown International Airport, NY (KART)

Mostly Cloudy
46.0 F